Flag for U.S.A. Weather past 2 weeks in Vevay, Indiana, U.S.A.

Now
43 °F

Passing clouds.


Feels Like: 38 °F
Forecast: 40 / 58 °F
Wind: 8 mph from North

Location: Cincinnati / Northern Kentucky International Airport

Current Time: Oct 22, 2014 at 9:10:53 AM

Latest Report: Oct 22, 2014 at 7:52 AM


Visibility: 10 mi

Pressure: 30.25 "Hg

Humidity: 79%

Dew point: 37 °F

Location of VevayLocation

Historic Weather in Vevay — Graph

°F

Vevay temperature yesterday

Maximum temperature yesterday: 56 °F (at 11:52 AM)
Minimum temperature yesterday: 45 °F (at 7:52 AM)
Average temperature yesterday: 52 °F

Past Weeks' High & Low Weather Summary

 TemperatureHumidityPressure
High76 °F (Oct 13, 3:52 PM)94% (Oct 7, 9:56 AM)30.25 "Hg (Oct 7, 9:56 AM)
Low42 °F (Oct 19, 10:52 PM)36% (Oct 8, 3:52 PM)29.57 "Hg (Oct 14, 11:52 AM)
Average56 °F76%29.95 "Hg
* Reported Oct 7 7:52 AM — Oct 22 7:52 AM, Vevay, Weather by CustomWeather, © 2014

Note: Actual official high and low records may vary slightly from our data, if they occured in-between our weather recording intervals... More about our weather records

Advertising

Vevay weather history for previous 24 hours

 ConditionsComfort  
Time TempWeatherWind HumidityBarometerVisibility
7:52 AM
Oct 22
43 °FPassing clouds.8 mph79%30.25 "Hg10 mi
6:52 AM45 °FOvercast.10 mph74%30.24 "Hg10 mi
5:52 AM46 °FOvercast.8 mph71%30.22 "Hg10 mi
4:52 AM46 °FOvercast.7 mph71%30.19 "Hg10 mi
3:52 AM47 °FOvercast.7 mph66%30.18 "Hg10 mi
3:03 AM46 °FMostly cloudy.10 mph66%30.18 "Hg10 mi
2:52 AM47 °FMostly cloudy.8 mph64%30.18 "Hg10 mi
1:52 AM48 °FOvercast.13 mph61%30.17 "Hg10 mi
12:52 AM48 °FOvercast.9 mph66%30.17 "Hg10 mi
11:52 PM
Oct 21
48 °FMostly cloudy.10 mph74%30.17 "Hg10 mi
10:52 PM47 °FPassing clouds.7 mph77%30.16 "Hg10 mi
9:52 PM48 °FPassing clouds.7 mph74%30.15 "Hg10 mi
8:52 PM50 °FPassing clouds.8 mph68%30.13 "Hg10 mi
7:52 PM52 °FOvercast.9 mph64%30.12 "Hg10 mi
6:52 PM53 °FOvercast.7 mph61%30.10 "Hg10 mi
5:52 PM54 °FMostly cloudy.8 mph59%30.09 "Hg10 mi
4:52 PM55 °FOvercast.9 mph57%30.07 "Hg10 mi
3:52 PM53 °FOvercast.10 mph59%30.05 "Hg10 mi
2:52 PM55 °FMostly cloudy.13 mph53%30.03 "Hg10 mi
1:52 PM56 °FBroken clouds.14 mph49%30.03 "Hg10 mi
12:52 PM55 °FMostly cloudy.21 mph49%30.03 "Hg10 mi
11:52 AM56 °FPartly sunny.10 mph62%30.03 "Hg10 mi
10:52 AM53 °FOvercast.10 mph69%30.03 "Hg10 mi
9:52 AM51 °FOvercast.9 mph77%30.02 "Hg10 mi
Weather by CustomWeather, © 2014

See weather overviewHow to use our weather pages